User: anonymous   Login
Location: Unspecified
(0.0000°N, 0.0000°E)
Time: 20:50:39
(UTC+00:00)
Language:

3CAT-2 - Orbit

View from above orbital plane
View from above orbital plane
View from above satellite
View from above satellite

Ground track
Ground track

The orbit data is extracted from the following two-line orbital elements,

1 41732U 16051B   22268.33818097  .00011854  00000-0  34592-3 0  9994
2 41732  97.3804 191.4722 0008730 303.2704 175.6086 15.35454439340646
Epoch (UTC): 25 September 2022 08:06:58
Eccentricity: 0.0008730
inclination: 97.3804°
perigee height: 453 km
apogee height: 465 km
right ascension of ascending node: 191.4722°
argument of perigee: 303.2704°
revolutions per day: 15.35454439
mean anomaly at epoch: 175.6086°
orbit number at epoch: 34064

The dashed part of the orbit path shows where the satellite is in the earth's shadow,  

DLR